Weather History for Omaha, NE

Change the Weather History Date:

Friday, September 14, 2012

  Actual Average Record
Temperature  
Mean Temperature 65 °F 67 °F  
Max Temperature 79 °F 78 °F 98 °F (1939)
Min Temperature 50 °F 55 °F 38 °F (1974)
Degree Days  
Heating Degree Days 0 2  
Month to date heating degree days 6 20  
Since 1 July heating degree days 12 28  
Cooling Degree Days 0 4  
Month to date cooling degree days 96 77  
Year to date cooling degree days 1638 1057  
Growing Degree Days 14 (Base 50)    
Moisture  
Dew Point 46 °F    
Average Humidity 59    
Maximum Humidity 93    
Minimum Humidity 25    
Precipitation  
Precipitation 0.00 in 0.09 in 2.21 in (1874)
Month to date precipitation 1.39 1.36  
Year to date precipitation 18.11 24.47  
Snow  
Snow 0.00 in 0.00 in - ()
Month to date snowfall 0.0 0.0  
Since 1 July snowfall 0.0 0.0  
Snow Depth 0.00 in    
Sea Level Pressure  
Sea Level Pressure 30.33 in    
Wind  
Wind Speed 9 mph (South)    
Max Wind Speed 17 mph    
Max Gust Speed 21 mph    
Visibility 10 miles    
Events      
T = Trace of Precipitation, MM = Missing Value Source: NWS Daily Summary

Daily Weather History Graph

Daily Weather History Graph

Search for Another Location

Airport:

Trip Planner

Search our weather history database for the weather conditions in past years. The results will help you decide how hot, cold, wet, or windy it might be!

Date:

Astronomy

Sep. 14, 2012 Rise Set
Actual Time 7:03 AM CDT 7:33 PM CDT
Civil Twilight 6:35 AM CDT 8:01 PM CDT
Nautical Twilight 6:03 AM CDT 8:33 PM CDT
Astronomical Twilight 5:29 AM CDT 9:07 PM CDT
Moon 5:28 AM CDT (9/14) 6:30 PM CDT (9/14)
Length of Visible Light 13h 25m
Length of Day
12h 30m
Waning Crescent, 2% of the Moon is Illuminated
Sep 14
Waning Crescent
Sep 15
New
Sep 22
First Quarter
Sep 29
Full
Oct 8
Last Quarter

Hourly Weather History & Observations

Time (CDT) Temp. Dew Point Humidity Pressure Visibility Wind Dir Wind Speed Gust Speed Precip Events Conditions
12:52 AM 54.0 °F 50.0 °F 86% 30.38 in 10.0 mi SSE 6.9 mph - N/A   Partly Cloudy
1:52 AM 53.1 °F 48.9 °F 86% 30.38 in 10.0 mi SSE 6.9 mph - N/A   Partly Cloudy
2:52 AM 52.0 °F 48.9 °F 89% 30.38 in 10.0 mi SSE 6.9 mph - N/A   Partly Cloudy
3:52 AM 51.1 °F 48.0 °F 89% 30.37 in 10.0 mi SSE 5.8 mph - N/A   Clear
4:52 AM 51.1 °F 48.0 °F 89% 30.36 in 10.0 mi SSE 8.1 mph - N/A   Clear
5:52 AM 50.0 °F 48.0 °F 93% 30.37 in 10.0 mi SE 6.9 mph - N/A   Clear
6:52 AM 50.0 °F 46.9 °F 89% 30.37 in 10.0 mi SSE 6.9 mph - N/A   Partly Cloudy
7:52 AM 51.1 °F 48.9 °F 92% 30.38 in 10.0 mi SSE 5.8 mph - N/A   Partly Cloudy
8:52 AM 55.0 °F 50.0 °F 83% 30.38 in 10.0 mi SSE 8.1 mph - N/A   Scattered Clouds
9:52 AM 60.1 °F 48.9 °F 67% 30.38 in 10.0 mi South 6.9 mph - N/A   Scattered Clouds
10:52 AM 64.9 °F 46.9 °F 52% 30.37 in 10.0 mi South 6.9 mph - N/A   Scattered Clouds
11:52 AM 70.0 °F 44.1 °F 39% 30.35 in 10.0 mi SSW 8.1 mph - N/A   Scattered Clouds
12:52 PM 75.0 °F 39.9 °F 28% 30.34 in 10.0 mi SSW 9.2 mph - N/A   Scattered Clouds
1:52 PM 77.0 °F 39.2 °F 26% 30.33 in 10.0 mi SSW 10.4 mph 16.1 mph N/A   Scattered Clouds
2:52 PM 78.1 °F 41.0 °F 27% 30.30 in 10.0 mi South 13.8 mph 19.6 mph N/A   Scattered Clouds
3:52 PM 79.0 °F 41.0 °F 26% 30.28 in 10.0 mi South 12.7 mph - N/A   Scattered Clouds
4:52 PM 78.1 °F 39.9 °F 25% 30.27 in 10.0 mi South 10.4 mph - N/A   Partly Cloudy
5:52 PM 78.1 °F 43.0 °F 29% 30.26 in 10.0 mi South 11.5 mph - N/A   Partly Cloudy
6:52 PM 75.0 °F 44.1 °F 33% 30.26 in 10.0 mi South 9.2 mph - N/A   Partly Cloudy
7:52 PM 70.0 °F 43.0 °F 38% 30.26 in 10.0 mi SSE 11.5 mph - N/A   Partly Cloudy
8:52 PM 66.9 °F 44.1 °F 44% 30.27 in 10.0 mi South 11.5 mph - N/A   Partly Cloudy
9:52 PM 64.0 °F 46.0 °F 52% 30.28 in 10.0 mi South 10.4 mph - N/A   Clear
10:52 PM 60.1 °F 46.9 °F 62% 30.29 in 10.0 mi SSE 6.9 mph - N/A   Clear
11:52 PM 57.9 °F 48.0 °F 70% 30.28 in 10.0 mi SSE 8.1 mph - N/A   Clear